Location: Edelsbach
(47.0167°N, 15.6000°E)
Time: 22:49:28
(UTC+00:00)

Cosmos 2322 Rocket - Pass Details

Date: 08 August 2020
Orbit: 831 x 852 km, 71.0° (Epoch: 23 September)

Event Time Altitude Azimuth Distance (km) Brightness Sun altitude
Rises 20:13:02 0° 338° (NNW) 3,417 6.7 -16.5°
Reaches altitude 10° 20:15:49 10° 349° (N) 2,481 5.5 -16.8°
Maximum altitude 20:20:45 29° 49° (NE) 1,506 3.5 -17.4°
Enters shadow 20:23:49 19° 95° (E) 1,942 3.7 -17.7°
